Вернуться в каталог

ARIANE 5 R/B

АктивенHEO
NORAD 54745·ROCKET BODY·🇫🇷 France

Запущен Dec 13, 2022 с Guiana Space Centre

Loading…

Ближайшие Пролёты (ближайшие 24 часа)

TLE

СвежийSource: Space-Track

Эпоха: Sep 14, 2026, 13:09 UTC

1 54745U 22170E   26257.54804016  .00037869  23138-6  14721-2 0  9990
2 54745   5.9400 260.5869 6769661  79.4594 344.8989  2.99548422 35750

Отслеживайте ARIANE 5 R/B в реальном времени с AllMySat

Download on the App Store